Location: Robert Ferguson Observatory
(38.4385°N, 122.5078°W)
Time: 05:20:13
(UTC-08:00)

Daily predictions for brighter satellites

Satellite Brightness Start Highest point End
(mag) Time Altitude Azimuth Time Altitude Azimuth Time Altitude Azimuth
Cosmos 773 Rocket 4.3 04:48:20 65° E 04:48:20 65° E 04:53:17 10° SSE
NOSS 3-1 (A) 4.0 04:53:25 42° NNW 04:56:34 85° ENE 05:05:01 10° SSE
Thor Agena Rocket 3.9 04:53:34 10° SSE 04:57:37 55° S 04:57:37 55° S
Tiangong 2 4.0 05:03:21 16° ENE 05:03:21 16° ENE 05:04:05 10° ENE
Cosmos 1943 4.3 04:58:36 17° N 05:02:34 41° ENE 05:07:54 10° SE
Cosmos 2346 Rocket 4.3 05:03:43 69° WSW 05:03:43 69° WSW 05:09:25 10° S
ATLAS 2AS CENTAUR R/B 4.3 04:58:02 12° NNW 05:04:38 35° NE 05:11:30 10° ESE
Cosmos 2221 3.2 05:07:10 47° NNE 05:07:10 47° NNE 05:10:21 10° NNE
Cosmos 292 Rocket 4.2 05:07:12 41° N 05:08:39 60° ENE 05:13:23 10° SSE
Meteor 2-12 Rocket 4.5 05:09:11 10° S 05:15:19 81° E 05:21:30 10° N
SKYMED 2 4.0 05:11:27 10° SSE 05:15:42 61° ENE 05:18:07 25° N
Cosmos 2263 Rocket 3.0 05:11:43 10° S 05:17:11 52° ESE 05:22:43 10° NNE
NOAA 6 3.9 05:15:17 10° NNE 05:20:30 83° WNW 05:25:41 10° SSW
Meteor 1-11 4.1 05:17:21 27° NNW 05:20:38 71° W 05:26:22 10° S
Gbstr 26 Del rocket 3.5 05:22:49 49° SW 05:24:20 87° NW 05:30:41 10° NE
APEX 4.2 05:20:56 10° S 05:24:36 42° ESE 05:27:37 10° NE
SL-8 R/B 3.6 05:25:17 63° WSW 05:25:41 67° SW 05:30:26 10° SE
Cosmos 1340 Rocket 4.2 05:28:39 25° SSW 05:28:39 25° SSW 05:30:29 10° S
Cosmos 1666 Rocket 4.4 05:23:58 10° N 05:28:20 50° E 05:32:40 10° SSE
Cosmos 1603 3.7 05:28:58 46° WNW 05:30:03 53° WSW 05:35:32 10° S
Coronas F rocket 3.4 05:31:19 24° E 05:31:19 24° E 05:33:12 10° SE
Cosmos 2344 3.9 05:23:45 10° SSW 05:31:22 70° ESE 05:39:39 10° NE
Cosmos 2034 Rocket 4.0 05:27:31 10° S 05:33:43 83° E 05:40:01 10° N
NOSS 3-1 (C) 4.3 05:31:01 33° WNW 05:34:04 47° WSW 05:42:01 10° S
Cosmos 1908 4.2 05:31:32 10° SSE 05:35:12 48° E 05:38:55 10° NNE
CSL-04 Rocket 4.4 05:30:13 10° NNE 05:35:23 52° E 05:40:30 10° S
Cosmos 1513 Rocket 4.4 05:35:30 10° SSW 05:41:47 76° W 05:48:13 10° N
SeaSat 1 3.4 05:42:32 10° N 05:46:09 28° NW 05:46:09 28° NW
ATLAS 2A CENTAUR R/B 4.5 05:46:25 14° SW 05:47:15 15° SSW 05:49:09 10° SSE
Cosmos 1626 2.0 05:50:14 21° NNW 05:52:36 66° W 05:56:17 10° S
Cosmos 2058 4.2 05:55:32 23° WSW 05:55:32 23° WSW 05:57:45 10° SSW
Ariane Rocket 2.9 05:51:29 10° NNE 05:56:37 81° WNW 06:01:42 10° SSW
Cosmos 1464 Rocket 4.3 05:54:32 10° SSW 06:00:32 44° WNW 06:06:29 10° N
COSMO-SKYMED 1 3.1 05:59:47 10° SSW 06:03:47 36° W 06:06:43 17° NW
Cosmos 1805 Rocket 4.0 06:02:50 13° NNW 06:06:24 38° W 06:10:25 10° SSW
Meteor 1-28 Rocket 3.4 06:05:20 10° S 06:08:55 45° W 06:12:26 11° NNW
EP 1 4.0 06:07:04 10° SW 06:09:43 83° WNW 06:12:17 10° NNE
Cosmos 1898 Rocket 3.4 06:05:03 10° SSW 06:10:18 81° WNW 06:15:39 10° NNE
Cosmos 1680 Rocket 3.9 06:06:38 13° NW 06:10:59 41° WSW 06:15:56 10° S
Cosmos 1184 Rocket 3.5 06:11:05 25° NW 06:12:13 32° W 06:15:12 10° SSW
Cosmos 1356 Rocket 4.2 06:11:10 16° NW 06:13:44 30° W 06:17:26 10° SSW
ATLAS 3B CENTAUR R/B 4.3 06:09:05 10° SW 06:14:38 39° SSE 06:28:36 10° E
DELTA 2 R/B (1) 3.6 06:11:11 20° W 06:15:08 79° N 06:20:43 10° E
PAYLOAD A 3.8 06:11:37 10° N 06:16:33 83° WNW 06:21:17 10° SSW
Sich 1 3.3 06:13:56 10° NNW 06:18:03 44° W 06:22:07 10° SSW
IDEFIX/ARIANE 42P 2.7 06:22:31 10° NNE 06:27:49 84° ESE 06:33:05 10° SSW
Cosmos 2150 Rocket 4.0 06:22:28 10° SSW 06:27:52 69° WNW 06:33:13 10° NNE
Helios 1B rocket 3.7 06:24:05 10° SE 06:27:58 43° ENE 06:31:53 10° N
Cosmos 1151 Rocket 3.3 06:24:06 10° S 06:28:21 71° E 06:32:36 10° NNE
Cosmos 1633 Rocket 3.5 06:25:13 10° NNW 06:29:14 38° W 06:33:14 10° SSW
Cosmos 1328 Rocket 3.6 06:25:05 10° SSW 06:29:18 52° W 06:33:36 10° N
IRS-1A Rocket 4.3 06:23:36 10° N 06:29:28 78° WNW 06:35:12 10° SSW
Cosmos 2228 Rocket 3.3 06:28:34 10° SSW 06:32:48 45° W 06:37:02 10° N
Cosmos 1937 Rocket 3.4 06:30:33 10° SSW 06:35:39 66° WNW 06:40:46 10° NNE
Tiangong 2 2.0 06:35:21 13° WNW 06:37:46 34° N 06:40:41 10° ENE
Cosmos 389 Rocket 3.9 06:35:52 10° WSW 06:38:40 20° WNW 06:41:29 10° NNW
CZ-4 R/B 1.4 06:34:52 10° N 06:38:56 63° WNW 06:43:02 10° SSW
CORIOLIS 4.5 06:34:17 10° NNE 06:39:44 76° ESE 06:45:10 10° S
CZ-2C R/B 2.2 06:37:32 10° N 06:42:04 68° WNW 06:46:37 10° SSW
Cosmos 1515 Rocket 3.7 06:38:48 10° SSW 06:43:05 50° W 06:47:26 10° N
SJ-12 4.1 06:42:14 10° N 06:46:11 49° WNW 06:50:05 10° SSW
Cosmos 1943 4.2 06:41:43 10° NW 06:46:21 26° WSW 06:50:56 10° SSW
Cosmos 1726 2.1 06:44:48 10° SSW 06:48:26 61° W 06:52:08 10° N
Aureole 3 4.2 06:43:14 10° NNW 06:49:27 60° W 06:54:16 10° S
PSLV R/B 3.3 06:46:15 10° WNW 06:49:39 78° SSW 06:53:01 10° ESE
NOSS 3-3 (A) 4.1 06:44:40 10° SW 06:50:45 61° NW 06:57:21 10° NNE
NOSS 3-3 (C) 4.1 06:44:47 10° SW 06:50:52 61° NW 06:57:29 10° NNE
Cosmos 1655 Rocket 4.3 06:44:46 10° N 06:51:02 76° E 06:57:14 10° SSE
Cosmos 1627 Rocket 4.5 06:45:12 10° N 06:51:21 82° W 06:57:33 10° S
SMAP 3.1 06:49:38 10° N 06:54:14 59° WNW 06:58:48 10° SSW
Cosmos 1634 Rocket 4.1 06:49:31 10° SSW 06:55:42 58° W 07:01:53 10° N
NOSS 2-1 (D) 3.7 06:52:02 10° SSW 06:55:48 70° ESE 06:59:56 10° NE
YAOGAN 1 2.6 06:51:42 10° N 06:55:59 63° WNW 07:00:14 10° SSW
ATLAS 2AS CENTAUR R/B 3.1 06:48:16 10° NW 06:56:06 60° WSW 07:03:18 10° SSE
